Helena, Arkansas, United States (72342)
Lat: 34.53N, Lon: 90.59W
Wx Zone: ARZ058
Local Info
Past Weather Observations for Wednesday, February 3, 2016

NOTE: This archive is for the closest National Weather Service station to Helena. Information may differ from the station used for current weather conditions.

Click here for Long-term Archive

Time Weather Temperature Dewpoint Humidity Pressure Winds Precip Visibility
23:55
Clear
32°F / 0°C 28°F / -2°C 87% 30.27 in
(1025 mb)
NNW 6.9 mph
(NNW 11 kph)
- 10SM
23:35
Clear
32°F / 0°C 28°F / -2°C 87% 30.27 in
(1025 mb)
NNW 5.8 mph
(NNW 9 kph)
- 10SM
23:15
Clear
32°F / 0°C 28°F / -2°C 87% 30.27 in
(1025 mb)
N 6.9 mph
(N 11 kph)
- 10SM
22:55
Clear
34°F / 1°C 28°F / -2°C 81% 30.27 in
(1025 mb)
N 6.9 mph
(N 11 kph)
- 10SM
22:35
Clear
36°F / 2°C 30°F / -1°C 81% 30.27 in
(1025 mb)
N 4.6 mph
(N 7 kph)
- 10SM
22:15
Clear
34°F / 1°C 30°F / -1°C 87% 30.27 in
(1025 mb)
N 4.6 mph
(N 7 kph)
- 10SM
21:55
Clear
36°F / 2°C 30°F / -1°C 81% 30.24 in
(1024 mb)
N 4.6 mph
(N 7 kph)
- 10SM
21:35
Clear
37°F / 3°C 30°F / -1°C 75% 30.24 in
(1024 mb)
N 8.1 mph
(N 13 kph)
- 10SM
21:15
Clear
37°F / 3°C 30°F / -1°C 75% 30.24 in
(1024 mb)
NNW 10.4 mph
(NNW 17 kph)
- 10SM
20:55
Clear
37°F / 3°C 30°F / -1°C 75% 30.24 in
(1024 mb)
NNW 6.9 mph
(NNW 11 kph)
- 10SM
20:35
Clear
39°F / 4°C 30°F / -1°C 70% 30.24 in
(1024 mb)
N 8.1 mph
(N 13 kph)
- 10SM
20:15
Clear
39°F / 4°C 32°F / 0°C 75% 30.21 in
(1023 mb)
N 9.2 mph
(N 15 kph)
- 10SM
19:55
Clear
41°F / 5°C 32°F / 0°C 70% 30.21 in
(1023 mb)
N 8.1 mph
(N 13 kph)
- 10SM
19:35
Clear
39°F / 4°C 32°F / 0°C 75% 30.21 in
(1023 mb)
N 9.2 mph
(N 15 kph)
- 10SM
19:15
Clear
39°F / 4°C 32°F / 0°C 75% 30.18 in
(1022 mb)
N 9.2 mph
(N 15 kph)
- 10SM
18:55
Clear
41°F / 5°C 32°F / 0°C 70% 30.18 in
(1022 mb)
NNW 5.8 mph
(NNW 9 kph)
- 10SM
18:35
Clear
43°F / 6°C 32°F / 0°C 66% 30.18 in
(1022 mb)
NNW 4.6 mph
(NNW 7 kph)
- 10SM
18:15
Clear
43°F / 6°C 32°F / 0°C 66% 30.15 in
(1021 mb)
NW 4.6 mph
(NW 7 kph)
- 10SM
17:55
Partly Cloudy
43°F / 6°C 32°F / 0°C 66% 30.15 in
(1021 mb)
NW 5.8 mph
(NW 9 kph)
- 10SM
17:35
Clear
45°F / 7°C 32°F / 0°C 61% 30.15 in
(1021 mb)
NW 4.6 mph
(NW 7 kph)
- 10SM
17:15
Clear
45°F / 7°C 32°F / 0°C 61% 30.12 in
(1020 mb)
NW 8.1 mph
(NW 13 kph)
- 10SM
16:55
Clear
46°F / 8°C 30°F / -1°C 53% 30.12 in
(1020 mb)
NW 6.9 mph
(NW 11 kph)
- 10SM
16:35
Clear
46°F / 8°C 30°F / -1°C 53% 30.12 in
(1020 mb)
NW 6.9 mph
(NW 11 kph)
- 10SM
16:15
Clear
46°F / 8°C 30°F / -1°C 53% 30.12 in
(1020 mb)
WNW 9.2 mph
(WNW 15 kph)
- 10SM
15:55
Partly Cloudy
46°F / 8°C 32°F / 0°C 57% 30.09 in
(1019 mb)
NW 8.1 mph
(NW 13 kph)
- 10SM
15:35
Partly Cloudy
46°F / 8°C 30°F / -1°C 53% 30.09 in
(1019 mb)
NW 12.7 mph
(NW 20 kph)
- 10SM
15:15
Clear
46°F / 8°C 32°F / 0°C 57% 30.09 in
(1019 mb)
WNW 9.2 mph
(WNW 15 kph)
- 10SM
14:55
Clear
46°F / 8°C 30°F / -1°C 53% 30.09 in
(1019 mb)
WNW 9.2 mph
(WNW 15 kph)
- 10SM
14:35
Clear
46°F / 8°C 30°F / -1°C 53% 30.06 in
(1018 mb)
NW 11.5 mph
(NW 19 kph)
- 10SM
14:15
Clear
46°F / 8°C 32°F / 0°C 57% 30.06 in
(1018 mb)
NW 12.7 mph
(NW 20 kph)
- 10SM
13:55
Clear
46°F / 8°C 32°F / 0°C 57% 30.06 in
(1018 mb)
WNW 13.8 mph
(WNW 22 kph)
- 10SM
13:35
Clear
46°F / 8°C 30°F / -1°C 53% 30.06 in
(1018 mb)
W 13.8 mph
(W 22 kph)
- 10SM
13:15
Clear
46°F / 8°C 32°F / 0°C 57% 30.06 in
(1018 mb)
WNW 13.8 mph
(WNW 22 kph)
- 10SM
12:55
Clear
46°F / 8°C 32°F / 0°C 57% 30.06 in
(1018 mb)
WNW 12.7 mph
(WNW 20 kph)
- 10SM
12:35
Clear
46°F / 8°C 30°F / -1°C 53% 30.06 in
(1018 mb)
NW 11.5 mph
(NW 19 kph)
- 10SM
12:15
Clear
45°F / 7°C 32°F / 0°C 61% 30.06 in
(1018 mb)
W 9.2 mph
(W 15 kph)
- 10SM
11:55
Clear
46°F / 8°C 32°F / 0°C 57% 30.06 in
(1018 mb)
NW 9.2 mph
(NW 15 kph)
- 10SM
11:35
Clear
45°F / 7°C 32°F / 0°C 61% 30.06 in
(1018 mb)
NW 10.4 mph
(NW 17 kph)
- 10SM
11:15
Clear
45°F / 7°C 32°F / 0°C 61% 30.06 in
(1018 mb)
W 12.7 mph
(W 20 kph)
- 10SM
10:55
Clear
45°F / 7°C 32°F / 0°C 61% 30.06 in
(1018 mb)
NW 13.8 mph
(NW 22 kph)
- 10SM
10:35
Clear
45°F / 7°C 32°F / 0°C 61% 30.06 in
(1018 mb)
NW 15 mph
(NW 24 kph)
- 10SM
10:15
Clear
43°F / 6°C 32°F / 0°C 66% 30.06 in
(1018 mb)
WNW 13.8 mph
(WNW 22 kph)
- 10SM
09:55
Clear
43°F / 6°C 32°F / 0°C 66% 30.06 in
(1018 mb)
W 11.5 mph
(W 19 kph)
- 10SM
09:35
Clear
43°F / 6°C 30°F / -1°C 61% 30.06 in
(1018 mb)
WNW 16.1 mph
(WNW 26 kph)
- 10SM
09:15
Clear
43°F / 6°C 30°F / -1°C 61% 30.06 in
(1018 mb)
W 16.1 mph
(W 26 kph)
- 10SM
08:55
Clear
41°F / 5°C 30°F / -1°C 66% 30.06 in
(1018 mb)
W 11.5 mph
(W 19 kph)
- 10SM
08:35
Clear
41°F / 5°C 30°F / -1°C 66% 30.04 in
(1017 mb)
W 13.8 mph
(W 22 kph)
- 10SM
08:15
Clear
41°F / 5°C 30°F / -1°C 66% 30.01 in
(1016 mb)
W 16.1 mph
(W 26 kph)
- 10SM
07:55
Clear
41°F / 5°C 30°F / -1°C 66% 30.01 in
(1016 mb)
W 16.1 mph
(W 26 kph)
- 10SM
07:35
Clear
41°F / 5°C 30°F / -1°C 66% 30.01 in
(1016 mb)
W 17.3 mph
(W 28 kph)
- 10SM
07:15
Clear
39°F / 4°C 30°F / -1°C 70% 29.98 in
(1015 mb)
W 16.1 mph
(W 26 kph)
- 10SM
06:55
Clear
39°F / 4°C 30°F / -1°C 70% 29.98 in
(1015 mb)
W 16.1 mph
(W 26 kph)
- 10SM
06:35
Clear
41°F / 5°C 30°F / -1°C 66% 29.95 in
(1014 mb)
W 16.1 mph
(W 26 kph)
- 10SM
06:15
Clear
41°F / 5°C 30°F / -1°C 66% 29.95 in
(1014 mb)
W 13.8 mph
(W 22 kph)
- 10SM
05:55
Clear
41°F / 5°C 30°F / -1°C 66% 29.92 in
(1013 mb)
SSW 11.5 mph
(SSW 19 kph)
- 10SM
05:35
Clear
43°F / 6°C 32°F / 0°C 66% 29.92 in
(1013 mb)
W 12.7 mph
(W 20 kph)
- 10SM
05:15
Clear
43°F / 6°C 34°F / 1°C 71% 29.92 in
(1013 mb)
SSW 12.7 mph
(SSW 20 kph)
- 10SM
04:55
Clear
43°F / 6°C 36°F / 2°C 76% 29.89 in
(1012 mb)
SSW 9.2 mph
(SSW 15 kph)
- 10SM
04:35
Clear
43°F / 6°C 36°F / 2°C 76% 29.89 in
(1012 mb)
SSW 8.1 mph
(SSW 13 kph)
- 10SM
04:15
Clear
43°F / 6°C 36°F / 2°C 76% 29.86 in
(1011 mb)
SSW 8.1 mph
(SSW 13 kph)
- 10SM
03:55
Clear
45°F / 7°C 36°F / 2°C 71% 29.86 in
(1011 mb)
W 8.1 mph
(W 13 kph)
- 10SM
03:35
Clear
45°F / 7°C 36°F / 2°C 71% 29.83 in
(1010 mb)
WNW 5.8 mph
(WNW 9 kph)
- 10SM
03:15
Clear
45°F / 7°C 34°F / 1°C 66% 29.83 in
(1010 mb)
NW 6.9 mph
(NW 11 kph)
- 10SM
02:55
Clear
45°F / 7°C 36°F / 2°C 71% 29.86 in
(1011 mb)
SSW 5.8 mph
(SSW 9 kph)
- 10SM
02:35
Clear
46°F / 8°C 36°F / 2°C 66% 29.86 in
(1011 mb)
SW 6.9 mph
(SW 11 kph)
- 10SM
02:15
Clear
46°F / 8°C 36°F / 2°C 66% 29.86 in
(1011 mb)
SW 8.1 mph
(SW 13 kph)
- 10SM
01:55
Clear
46°F / 8°C 37°F / 3°C 71% 29.83 in
(1010 mb)
SW 6.9 mph
(SW 11 kph)
- 10SM
01:35
Clear
48°F / 9°C 37°F / 3°C 66% 29.83 in
(1010 mb)
SW 9.2 mph
(SW 15 kph)
- 10SM
01:15
Clear
48°F / 9°C 37°F / 3°C 66% 29.83 in
(1010 mb)
SW 10.4 mph
(SW 17 kph)
- 10SM
00:55
Clear
50°F / 10°C 37°F / 3°C 62% 29.83 in
(1010 mb)
SW 9.2 mph
(SW 15 kph)
- 10SM
00:35
Clear
52°F / 11°C 37°F / 3°C 58% 29.83 in
(1010 mb)
SW 8.1 mph
(SW 13 kph)
- 10SM
00:15
Clear
50°F / 10°C 39°F / 4°C 67% 29.8 in
(1009 mb)
SSE 9.2 mph
(SSE 15 kph)
- 10SM
Time Weather Temperature Dewpoint Humidity Pressure Winds Precip Visibility


Weather for websites

WeatherForYou.com, LLC is not responsible for any damages or problems caused by this service. Current weather conditions are obtained from the closest station including government and personal stations which may have varying degrees of accuracy. Weather forecasts are derived from the NOAA NDFD. Like all things, this site belongs to Jesus Christ... He just trusts us to maintain it. If you have any questions or comments email webmaster@weatherforyou.com

Copyright © 2016, WeatherForYou.com LLC. All rights reserved.